Météo par heure à Julianowo

Ce jour, 17 Juin, Jeudi

Heure Température Précipitation Vent Pression Humidité
00:00 +12°C° 0 mm 2 m/s 751 mmHg 88%
01:00 +12°C° 0 mm 2 m/s 752 mmHg 89%
02:00 +12°C° 0 mm 2 m/s 751 mmHg 89%
03:00 +12°C° 0 mm 2 m/s 751 mmHg 88%
04:00 +12°C° 0 mm 2 m/s 751 mmHg 88%
05:00 +14°C° 0 mm 2 m/s 751 mmHg 80%
06:00 +17°C° 0 mm 2 m/s 752 mmHg 72%
07:00 +19°C° 0 mm 2 m/s 752 mmHg 64%
08:00 +20°C° 0 mm 3 m/s 752 mmHg 58%
09:00 +22°C° 0 mm 3 m/s 752 mmHg 52%
10:00 +25°C° 0 mm 3 m/s 752 mmHg 47%
11:00 +25°C° 0 mm 3 m/s 752 mmHg 45%
12:00 +26°C° 0 mm 3 m/s 752 mmHg 43%
13:00 +27°C° 0 mm 3 m/s 752 mmHg 41%
14:00 +27°C° 0 mm 3 m/s 752 mmHg 43%
15:00 +27°C° 0 mm 3 m/s 752 mmHg 44%
16:00 +27°C° 0 mm 3 m/s 752 mmHg 45%
17:00 +25°C° 0 mm 3 m/s 752 mmHg 53%
18:00 +22°C° 0 mm 3 m/s 752 mmHg 62%
19:00 +21°C° 0 mm 2 m/s 752 mmHg 70%
20:00 +19°C° 0 mm 2 m/s 752 mmHg 75%
21:00 +18°C° 0 mm 2 m/s 752 mmHg 80%
22:00 +17°C° 0 mm 2 m/s 752 mmHg 85%
23:00 +16°C° 0 mm 2 m/s 752 mmHg 86%

Demain, 18 Juin, Vendredi

Heure Température Précipitation Vent Pression Humidité
00:00 +16°C° 0 mm 2 m/s 752 mmHg 88%
01:00 +15°C° 0 mm 2 m/s 752 mmHg 90%
02:00 +15°C° 0 mm 2 m/s 752 mmHg 90%
03:00 +15°C° 0 mm 2 m/s 752 mmHg 90%
04:00 +15°C° 0 mm 2 m/s 752 mmHg 91%
05:00 +17°C° 0 mm 3 m/s 752 mmHg 84%
06:00 +19°C° 0 mm 3 m/s 752 mmHg 77%
07:00 +22°C° 0 mm 3 m/s 752 mmHg 70%
08:00 +23°C° 0 mm 4 m/s 752 mmHg 64%
09:00 +26°C° 0 mm 4 m/s 752 mmHg 59%
10:00 +27°C° 0 mm 4 m/s 752 mmHg 54%
11:00 +28°C° 0 mm 4 m/s 751 mmHg 52%
12:00 +29°C° 0 mm 5 m/s 751 mmHg 50%
13:00 +29°C° 0 mm 5 m/s 751 mmHg 48%
14:00 +29°C° 0 mm 5 m/s 751 mmHg 49%
15:00 +29°C° 0 mm 4 m/s 751 mmHg 50%
16:00 +29°C° 0 mm 4 m/s 750 mmHg 52%
17:00 +27°C° 0 mm 4 m/s 750 mmHg 58%
18:00 +26°C° 0 mm 3 m/s 750 mmHg 65%
19:00 +24°C° 0 mm 3 m/s 750 mmHg 71%
20:00 +22°C° 0 mm 3 m/s 750 mmHg 75%
21:00 +20°C° 0 mm 3 m/s 751 mmHg 78%
22:00 +19°C° 0 mm 3 m/s 751 mmHg 81%
23:00 +18°C° 0 mm 3 m/s 751 mmHg 84%

Après-demain, 19 Juin, Samedi

Heure Température Précipitation Vent Pression Humidité
00:00 +18°C° 0 mm 3 m/s 750 mmHg 88%
01:00 +17°C° 0 mm 3 m/s 750 mmHg 92%
02:00 +17°C° 0 mm 3 m/s 750 mmHg 92%
03:00 +17°C° 0 mm 2 m/s 750 mmHg 93%
04:00 +17°C° 0 mm 2 m/s 750 mmHg 93%
05:00 +19°C° 0 mm 3 m/s 750 mmHg 85%
06:00 +21°C° 0 mm 3 m/s 750 mmHg 77%
07:00 +24°C° 0 mm 3 m/s 751 mmHg 69%
08:00 +25°C° 0 mm 4 m/s 750 mmHg 65%
09:00 +27°C° 0 mm 4 m/s 750 mmHg 60%
10:00 +28°C° 0 mm 4 m/s 750 mmHg 56%
11:00 +29°C° 0 mm 4 m/s 750 mmHg 54%
12:00 +30°C° 0 mm 4 m/s 750 mmHg 52%
13:00 +30°C° 0 mm 5 m/s 749 mmHg 50%
14:00 +30°C° 0 mm 4 m/s 749 mmHg 51%
15:00 +30°C° 0 mm 4 m/s 749 mmHg 51%
16:00 +30°C° 0 mm 4 m/s 749 mmHg 52%
17:00 +29°C° 0 mm 4 m/s 749 mmHg 59%
18:00 +27°C° 0 mm 3 m/s 749 mmHg 65%
19:00 +26°C° 0 mm 2 m/s 749 mmHg 72%
20:00 +25°C° 0 mm 2 m/s 749 mmHg 76%
21:00 +22°C° 0 mm 3 m/s 749 mmHg 80%
22:00 +21°C° 0 mm 3 m/s 749 mmHg 84%
23:00 +21°C° 0 mm 3 m/s 749 mmHg 87%

20 Juin, Dimanche

Heure Température Précipitation Vent Pression Humidité
00:00 +20°C° 0 mm 2 m/s 749 mmHg 90%
01:00 +19°C° 0 mm 2 m/s 749 mmHg 93%
02:00 +19°C° 0 mm 2 m/s 749 mmHg 93%
03:00 +19°C° 0 mm 2 m/s 749 mmHg 93%
04:00 +19°C° 0 mm 2 m/s 749 mmHg 94%
05:00 +21°C° 0 mm 3 m/s 749 mmHg 86%
06:00 +22°C° 0 mm 3 m/s 749 mmHg 78%
07:00 +25°C° 0 mm 3 m/s 749 mmHg 70%
08:00 +26°C° 0 mm 3 m/s 749 mmHg 65%
09:00 +27°C° 0 mm 4 m/s 748 mmHg 60%
10:00 +28°C° 0 mm 4 m/s 748 mmHg 54%
11:00 +29°C° 0 mm 4 m/s 748 mmHg 53%
12:00 +29°C° 0 mm 4 m/s 748 mmHg 51%
13:00 +30°C° 0 mm 4 m/s 747 mmHg 50%
14:00 +29°C° 0.1 mm 4 m/s 747 mmHg 54%
15:00 +28°C° 0.1 mm 4 m/s 747 mmHg 58%
16:00 +27°C° 0.1 mm 4 m/s 747 mmHg 62%
17:00 +26°C° 0 mm 3 m/s 747 mmHg 66%
18:00 +26°C° 0 mm 3 m/s 746 mmHg 70%
19:00 +25°C° 0 mm 2 m/s 746 mmHg 74%
20:00 +24°C° 0 mm 3 m/s 746 mmHg 78%
21:00 +21°C° 0 mm 3 m/s 746 mmHg 82%
22:00 +20°C° 0 mm 3 m/s 746 mmHg 85%
23:00 +20°C° 0 mm 3 m/s 746 mmHg 88%

21 Juin, Lundi

Heure Température Précipitation Vent Pression Humidité
00:00 +20°C° 0 mm 3 m/s 746 mmHg 90%
01:00 +19°C° 0 mm 3 m/s 746 mmHg 93%
02:00 +19°C° 0 mm 3 m/s 746 mmHg 94%
03:00 +19°C° 0 mm 3 m/s 746 mmHg 94%
04:00 +19°C° 0 mm 3 m/s 746 mmHg 95%
05:00 +21°C° 0 mm 4 m/s 745 mmHg 87%
06:00 +22°C° 0 mm 4 m/s 745 mmHg 80%
07:00 +25°C° 0 mm 5 m/s 745 mmHg 72%
08:00 +26°C° 0 mm 5 m/s 745 mmHg 65%
09:00 +27°C° 0 mm 6 m/s 745 mmHg 59%
10:00 +29°C° 0 mm 6 m/s 745 mmHg 53%
11:00 +29°C° 0 mm 6 m/s 745 mmHg 50%
12:00 +30°C° 0 mm 6 m/s 745 mmHg 48%
13:00 +30°C° 0 mm 6 m/s 745 mmHg 46%
14:00 +30°C° 0 mm 5 m/s 744 mmHg 47%
15:00 +30°C° 0 mm 5 m/s 744 mmHg 48%
16:00 +30°C° 0 mm 5 m/s 744 mmHg 49%
17:00 +29°C° 0 mm 4 m/s 744 mmHg 56%
18:00 +27°C° 0 mm 4 m/s 744 mmHg 62%
19:00 +26°C° 0 mm 3 m/s 744 mmHg 69%
20:00 +24°C° 0 mm 3 m/s 744 mmHg 74%
21:00 +22°C° 0 mm 3 m/s 744 mmHg 79%
22:00 +21°C° 0 mm 2 m/s 744 mmHg 85%
23:00 +20°C° 0 mm 2 m/s 743 mmHg 85%

22 Juin, Mardi

Heure Température Précipitation Vent Pression Humidité
00:00 +20°C° 0 mm 2 m/s 743 mmHg 86%
01:00 +20°C° 0 mm 2 m/s 743 mmHg 87%
02:00 +20°C° 0 mm 2 m/s 743 mmHg 87%
03:00 +20°C° 0 mm 2 m/s 743 mmHg 88%
04:00 +20°C° 0 mm 2 m/s 743 mmHg 89%
05:00 +21°C° 0 mm 3 m/s 743 mmHg 82%
06:00 +24°C° 0 mm 3 m/s 743 mmHg 76%
07:00 +26°C° 0 mm 4 m/s 743 mmHg 70%
08:00 +27°C° 0 mm 4 m/s 742 mmHg 65%
09:00 +28°C° 0 mm 4 m/s 742 mmHg 60%
10:00 +29°C° 0 mm 4 m/s 742 mmHg 55%
11:00 +30°C° 0.1 mm 4 m/s 742 mmHg 54%
12:00 +30°C° 0.1 mm 4 m/s 742 mmHg 53%
13:00 +32°C° 0.1 mm 4 m/s 742 mmHg 52%
14:00 +30°C° 0.2 mm 4 m/s 742 mmHg 54%
15:00 +30°C° 0.2 mm 3 m/s 742 mmHg 57%
16:00 +30°C° 0.2 mm 3 m/s 742 mmHg 60%
17:00 +27°C° 3.9 mm 3 m/s 742 mmHg 71%
18:00 +25°C° 3.9 mm 3 m/s 743 mmHg 82%
19:00 +21°C° 3.9 mm 3 m/s 743 mmHg 93%
20:00 +21°C° 1.7 mm 2 m/s 743 mmHg 93%
21:00 +20°C° 1.7 mm 2 m/s 744 mmHg 94%
22:00 +21°C° 1.7 mm 1 m/s 744 mmHg 95%
23:00 +20°C° 0 mm 1 m/s 744 mmHg 95%
Voir plus

Nous avons besoin de votre consentement

Meteoprog et ses fournisseurs de services peuvent stocker et accéder à des données personnelles telles que des cookies, des identifiants d'appareils ou d'autres technologies similaires sur votre appareil et traiter ces données pour personnaliser le contenu et les publicités, ainsi que pour fournir des fonctionnalités de médias sociaux et analyser le trafic.

  • Stocker et/ou accéder à des informations sur votre appareil

    Des cookies, des identifiants d'appareils ou d'autres informations peuvent être stockés ou accessibles sur votre appareil aux fins indiquées ci-dessus.

  • Annonces et contenus personnalisés, mesure des annonces et des contenus, connaissance de l'audience et développement de produits

    Les annonces et le contenu peuvent être personnalisés en fonction d'un profil. D'autres données peuvent être ajoutées pour mieux personnaliser les annonces et le contenu. Les performances des publicités et du contenu peuvent être mesurées. Il est possible d'obtenir des informations sur le public qui a vu les publicités et le contenu. Ces données peuvent être utilisées pour développer ou améliorer l'expérience de l'utilisateur, les systèmes et les logiciels.

En cliquant sur "J'accepte", vous autorisez l'utilisation de cookies, des identifiants d'appareils, des balises web ou d'autres technologies similaires. Vos paramètres peuvent être modifiés dans le navigateur de votre appareil.

Dans certains cas, des intérêts légitimes peuvent être invoqués plutôt qu'un consentement. Vous pouvez en savoir plus à ce sujet dans notre Politique de confidentialité et de cookies.